Regional Weather Roundup
Issued by NWS Memphis, TN

Home | Current Version | Previous Version | Text Only | Print | Product List | Glossary On
Versions: 1 2 3 4 5 6 7 8 9 10 11 12 13 14 15 16 17 18 19 20 21 22 23 24 25 26 27 28 29 30 31 32 33 34 35 36 37 38 39 40 41 42 43 44 45 46 47 48 49 50
000
ASUS44 KMEG 271310
RWRMEG
MEMPHIS CWA HOURLY WEATHER ROUNDUP
NATIONAL WEATHER SERVICE MEMPHIS TN
800 AM CDT TUE JUN 27 2017

...WEST TENNESSEE...

CITY           SKY/WX    TMP DP  RH WIND       PRES   REMARKS
MEMPHIS INTL   MOSUNNY   71  61  70 NE13G22   30.15R
NWS MEMPHIS      N/A     67 N/A N/A MISG        N/A
JACKSON        LGT RAIN  64  63  96 N9        30.17R
COVINGTON      MOSUNNY   64  61  88 E3        30.15F
SOMERVILLE     PTSUNNY   66  63  88 N7        30.15R
BOLIVAR        PTSUNNY   66  61  82 VRB5      30.15R
LEXINGTON      MOSUNNY   63  61  94 N6        30.16S
SELMER         MOSUNNY   64  61  88 NE6       30.14R
SAVANNAH       PTSUNNY   64  59  82 N5        30.15R
UNION CITY     MOSUNNY   66  63  88 CALM      30.14F
HUNTINGDON     MOSUNNY   64  61  88 CALM      30.15S


...EASTERN ARKANSAS...

CITY           SKY/WX    TMP DP  RH WIND       PRES   REMARKS
JONESBORO      CLOUDY    65  63  93 NE9       30.13S
WEST MEMPHIS   SUNNY     68  63  84 E14       30.13R
BATESVILLE     CLOUDY    64  61  88 E7        30.15S
WALNUT RIDGE   CLOUDY    64  61  88 NE7       30.15R
BLYTHEVILLE    CLOUDY    65  63  93 NE7       30.14F
SEARCY         CLOUDY    67  64  90 NE9       30.15S
STUTTGART      SUNNY     68  55  64 NE7       30.13R
PINE BLUFF     SUNNY     70  65  84 NE7       30.10S
MONTICELLO       N/A    N/A N/A N/A NE6       30.09R


...NORTH MISSISSIPPI...

CITY           SKY/WX    TMP DP  RH WIND       PRES   REMARKS
TUPELO         SUNNY     69  64  84 NW7       30.12R
OXFORD         SUNNY     66  61  82 NE8       30.14R
BATESVILLE     SUNNY     69  66  89 CALM      30.12R
OLIVE BRANCH   MOSUNNY  N/A N/A N/A NE13      30.14R
TUNICA           N/A     70  63  78 NE9       30.13R
CLARKSDALE       N/A     72  72 100 NE8       30.12R
CORINTH        PTSUNNY   68  61  77 NE6       30.14R
GREENWOOD      MOSUNNY   72  64  76 CALM      30.10R
STARKVILLE     SUNNY     70  64  83 CALM      30.11S
GOLDEN TRIANGL SUNNY     72  63  73 CALM      30.07R


...SOUTHEAST MISSOURI...

CITY           SKY/WX    TMP DP  RH WIND       PRES   REMARKS
KENNETT        CLOUDY    66  64  94 NE3       30.13F
MALDEN         CLOUDY    68  61  77 N6        30.17R
WEST PLAINS    MOSUNNY   63  60  90 E5        30.16S
POPLAR BLUFF   SUNNY     67  63  87 NE3       30.15R
CAPE GIRARDEAU SUNNY     64  56  75 CALM      30.16S


...NORTHWEST ALABAMA...

CITY           SKY/WX    TMP DP  RH WIND       PRES   REMARKS
MUSCLE SHOALS  CLOUDY    70  64  81 W3        30.14R


...MIDDLE TENNESSEE...

CITY           SKY/WX    TMP DP  RH WIND       PRES   REMARKS
NASHVILLE      PTSUNNY   68  54  60 CALM      30.16R
CLARKSVILLE    MOSUNNY   67  58  72 N3        30.16R
COLUMBIA       PTSUNNY   63  63 100 CALM      30.15R


...WESTERN KENTUCKY...

CITY           SKY/WX    TMP DP  RH WIND       PRES   REMARKS
PADUCAH        SUNNY     67  55  65 CALM      30.15R
FORT CAMPBELL  MOSUNNY   66  58  74 NE7       30.15R


...CENTRAL ARKANSAS...

CITY           SKY/WX    TMP DP  RH WIND       PRES   REMARKS
LITTLE ROCK    CLOUDY    65  64  97 NE8       30.12S


SKY/WX REPORTED AS FAIR MEANS FEW OR NO CLOUDS BELOW
12 THOUSAND FEET.




USA.gov is the U.S. government's official web portal to all federal, state and local government web resources and services.